Location: Ku?niki
(51.4449°N, 17.8974°E)
Time: 10:54:18
(UTC+00:00)

Cosmos 2278 Rocket - Pass Details

Date: 18 September 2020
Orbit: 841 x 845 km, 71.0° (Epoch: 25 October)

Event Time Altitude Azimuth Distance (km) Brightness Sun altitude
Exits shadow 21:22:20 36° 14° (NNE) 1,313 3.4 -34.5°
Drops below altitude 10° 21:25:42 10° 27° (NNE) 2,472 5.0 -34.7°
Sets 21:28:11 0° 30° (NNE) 3,410 5.8 -34.8°
